This demonstration page uses our WeatherBlox Daily Observations layout. Learn more.

Left ArrowRight Arrow

34.74481, -87.66753

Hourly Observations for May 2, 2022

Temp ( °F °C ) Dew Point ( °F °C ) Humidity (%) Winds ( mph kmh ) Pressure ( in mb ) Visibility ( mi km ) Precip ( " mm )
12:35 am 00:35 Clear with Mist and Fog 60 15.6 58 14.4 93 93 Calm 30.05 1017 3 4 0.00 0.00
12:44 am 00:44 Clear with Mist and Fog 60 15.6 59 15 96 96 Calm 30.04 1017 6 10 0.00 0.00
12:53 am 00:53 Clear with Mist and Fog 60 15.6 58 14.4 93 93 Calm 30.03 1017 3 5 0.00 0.00
1:00 am 01:00 Clear with Mist and Fog 60 15.6 59 15 96 96 Calm 30.04 1017 2 3 0.00 0.00
1:07 am 01:07 Clear with Mist and Fog 60 15.6 59 15 96 96 Calm 30.04 1017 3 5 0.00 0.00
1:16 am 01:16 Clear with Mist and Fog 59 15 58 14.4 96 96 Calm 30.04 1017 2 2 0.00 0.00
1:34 am 01:34 Clear with Mist and Fog 60 15.6 58 14.4 93 93 Calm 30.04 1017 3 5 0.00 0.00
1:42 am 01:42 Clear with Mist and Fog 59 15 58 14.4 96 96 Calm 30.03 1017 2 2 0.00 0.00
1:44 am 01:44 Mostly Cloudy with Mist and Fog 58 14.4 57 13.9 97 97 Calm 30.03 1017 1 2 0.00 0.00
1:51 am 01:51 Mostly Cloudy with Fog 57 14 57 14 100 100 Calm 30.03 1017 1 1 0.00 0.00
1:53 am 01:53 Mostly Cloudy with Fog 58 14.4 57 13.9 97 97 Calm 30.01 1016 1 1 0.00 0.00
2:10 am 02:10 Mostly Clear with Mist and Fog 58 14.4 57 13.9 97 97 Calm 30.03 1017 1 2 0.00 0.00
2:17 am 02:17 Mostly Cloudy with Mist and Fog 58 14.4 57 13.9 97 97 Calm 30.03 1017 1 1 0.00 0.00
2:25 am 02:25 Mostly Clear with Mist and Fog 58 14.4 57 13.9 97 97 Calm 30.03 1017 1 2 0.00 0.00
2:30 am 02:30 Mostly Cloudy with Mist and Fog 58 14.4 57 13.9 97 97 Calm 30.02 1017 1 1 0.00 0.00
2:44 am 02:44 Mostly Clear with Mist and Fog 57 13.9 57 13.9 100 100 SSE 5 7 30.02 1017 2 2 0.00 0.00
2:47 am 02:47 Mostly Clear with Mist and Fog 57 14 55 13 94 94 SSE 3 6 30.02 1017 3 5 0.00 0.00
2:53 am 02:53 Mostly Clear with Mist and Fog 59 15 57 13.9 93 93 Calm 30.00 1016 6 10 0.00 0.00
3:01 am 03:01 Clear with Mist and Fog 58 14.4 57 13.9 97 97 Calm 30.02 1017 2 3 0.00 0.00
3:11 am 03:11 Mostly Cloudy with Mist and Fog 57 13.9 55 12.8 93 93 Calm 30.02 1017 1 1 0.00 0.00
3:28 am 03:28 Partly Cloudy with Mist and Fog 56 13.3 54 12.2 93 93 Calm 30.03 1017 2 2 0.00 0.00
3:30 am 03:30 Partly Cloudy with Mist and Fog 56 13.3 54 12.2 93 93 Calm 30.03 1017 4 6 0.00 0.00
3:34 am 03:34 Mostly Cloudy with Mist and Fog 57 13.9 55 12.8 93 93 Calm 30.03 1017 2 2 0.00 0.00
3:41 am 03:41 Mostly Cloudy with Fog 57 13.9 56 13.3 96 96 Calm 30.04 1017 0 0 0.00 0.00
3:53 am 03:53 Mostly Cloudy with Fog 56 13.3 55 12.8 97 97 Calm 30.02 1017 0 0 0.00 0.00
4:07 am 04:07 Mostly Cloudy with Fog 56 13.3 55 12.8 97 97 Calm 30.04 1017 0 0 0.00 0.00
4:34 am 04:34 Mostly Cloudy with Fog 56 13.3 55 12.8 97 97 Calm 30.04 1017 1 1 0.00 0.00
4:53 am 04:53 Mostly Cloudy with Fog 56 13.3 54 12.2 93 93 Calm 30.03 1017 1 1 0.00 0.00
4:57 am 04:57 Mostly Cloudy with Fog 56 13.3 55 12.8 97 97 SSE 5 7 30.04 1017 0 0 0.00 0.00
5:04 am 05:04 Mostly Cloudy with Fog 57 13.9 56 13.3 96 96 SSE 6 9 30.04 1017 0 0 0.00 0.00
5:44 am 05:44 Mostly Cloudy with Fog 57 13.9 56 13.3 96 96 Calm 30.06 1018 0 0 0.00 0.00
5:53 am 05:53 Mostly Cloudy with Fog 56 13.3 55 12.8 97 97 Calm 30.04 1017 0 0 0.00 0.00
6:02 am 06:02 Mostly Cloudy with Fog 56 13.3 55 12.8 97 97 Calm 30.05 1018 1 1 0.00 0.00
6:07 am 06:07 Mostly Cloudy with Fog 55 12.8 54 12.2 96 96 Calm 30.05 1018 0 0 0.00 0.00
6:35 am 06:35 Mostly Cloudy with Mist and Fog 56 13.3 55 12.8 97 97 NNE 3 6 30.06 1018 1 1 0.00 0.00
6:38 am 06:38 Partly Cloudy with Mist and Fog 57 13.9 55 12.8 93 93 NNE 3 6 30.06 1018 1 2 0.00 0.00
6:42 am 06:42 Partly Cloudy with Mist and Fog 57 13.9 55 12.8 93 93 NNE 3 6 30.07 1018 3 5 0.00 0.00
6:53 am 06:53 Partly Cloudy with Mist and Fog 57 13.9 56 13.3 96 96 Calm 30.06 1018 4 6 0.00 0.00
7:53 am 07:53 Sunny 62 16.7 61 16.1 96 96 Calm 30.07 1018 9 14 0.00 0.00
8:53 am 08:53 Sunny 69 20.6 61 16.1 76 76 ESE 3 6 30.06 1018 10 16 0.00 0.00
9:53 am 09:53 Sunny 74 23.3 62 16.7 67 67 SE 6 9 30.06 1018 10 16 0.00 0.00
10:53 am 10:53 Sunny 79 26.1 63 17.2 58 58 ESE 6 9 30.05 1018 10 16 0.00 0.00
11:53 am 11:53 Sunny 81 27.2 63 17.2 54 54 undefined N/A 30.03 1017 10 16 0.00 0.00
12:53 pm 12:53 Partly Cloudy 84 28.9 65 18.3 53 53 SSE 7 11 30.01 1016 10 16 0.00 0.00
1:53 pm 13:53 Mostly Cloudy 84 28.9 65 18.3 53 53 SW 7 11 29.99 1016 10 16 0.00 0.00
2:53 pm 14:53 Mostly Cloudy 85 29.4 65 18.3 51 51 W 6 9 29.97 1015 10 16 0.00 0.00
3:03 pm 15:03 Mostly Cloudy with Thunderstorms 85 29.4 65 18.3 51 51 NW 5 7 29.95 1014 10 16 0.00 0.00
3:18 pm 15:18 Partly Cloudy 84 28.9 65 18.3 53 53 SW 8 13 29.95 1014 10 16 0.00 0.00
3:53 pm 15:53 Mostly Cloudy 84 28.9 65 18.3 53 53 S 3 6 29.95 1014 10 16 0.00 0.00
4:26 pm 16:26 Partly Cloudy with Nearby Thunderstorms 83 28.3 64 17.8 53 53 SW 5 7 29.95 1014 10 16 0.00 0.00
4:53 pm 16:53 Mostly Cloudy with Nearby Thunderstorms 77 25 64 17.8 64 64 SE 9 15 29.97 1015 10 16 0.00 0.00
5:21 pm 17:21 Mostly Cloudy with Thunderstorms 74 23.3 64 17.8 71 71 SE 6 9 29.96 1015 10 16 0.00 0.00

Powered by AerisWeather